• In Portugal
  • List of Countries
  • For 7 days
  • Water Temperature
  • Satellite Maps
  • Weather Map
  • Weather Widgets
  • user-avatar
    Login

    Hourly Weather Herāt

    Today, 20 September, Thursday

    Time Temperature Precipitation Wind Pressure Humidity
    00:00 +23°C° 0 mm 5 mps 680 mmHg 27%
    01:00 +22°C° 0 mm 5 mps 680 mmHg 27%
    02:00 +22°C° 0 mm 5 mps 680 mmHg 27%
    03:00 +21°C° 0 mm 5 mps 680 mmHg 28%
    04:00 +21°C° 0 mm 5 mps 680 mmHg 28%
    05:00 +21°C° 0 mm 5 mps 680 mmHg 27%
    06:00 +21°C° 0 mm 6 mps 681 mmHg 26%
    07:00 +21°C° 0 mm 6 mps 681 mmHg 25%
    08:00 +23°C° 0 mm 6 mps 681 mmHg 23%
    09:00 +26°C° 0 mm 7 mps 682 mmHg 20%
    10:00 +28°C° 0 mm 7 mps 682 mmHg 17%
    11:00 +29°C° 0 mm 7 mps 682 mmHg 16%
    12:00 +31°C° 0 mm 8 mps 682 mmHg 15%
    13:00 +32°C° 0 mm 8 mps 682 mmHg 14%
    14:00 +31°C° 0 mm 9 mps 681 mmHg 15%
    15:00 +31°C° 0 mm 9 mps 681 mmHg 15%
    16:00 +31°C° 0 mm 9 mps 681 mmHg 15%
    17:00 +28°C° 0 mm 9 mps 681 mmHg 18%
    18:00 +27°C° 0 mm 8 mps 681 mmHg 20%
    19:00 +24°C° 0 mm 8 mps 681 mmHg 23%
    20:00 +24°C° 0 mm 8 mps 681 mmHg 26%
    21:00 +23°C° 0 mm 8 mps 681 mmHg 29%
    22:00 +22°C° 0 mm 8 mps 682 mmHg 32%
    23:00 +22°C° 0 mm 7 mps 681 mmHg 33%

    Tomorrow, 21 September, Friday

    Time Temperature Precipitation Wind Pressure Humidity
    00:00 +21°C° 0 mm 7 mps 681 mmHg 35%
    01:00 +20°C° 0 mm 7 mps 681 mmHg 37%
    02:00 +20°C° 0 mm 6 mps 681 mmHg 38%
    03:00 +19°C° 0 mm 6 mps 681 mmHg 39%
    04:00 +19°C° 0 mm 6 mps 681 mmHg 40%
    05:00 +19°C° 0 mm 6 mps 681 mmHg 39%
    06:00 +19°C° 0 mm 6 mps 682 mmHg 37%
    07:00 +20°C° 0 mm 6 mps 682 mmHg 36%
    08:00 +22°C° 0 mm 7 mps 682 mmHg 32%
    09:00 +23°C° 0 mm 7 mps 683 mmHg 28%
    10:00 +26°C° 0 mm 8 mps 683 mmHg 24%
    11:00 +27°C° 0 mm 8 mps 683 mmHg 22%
    12:00 +28°C° 0 mm 8 mps 682 mmHg 21%
    13:00 +29°C° 0 mm 8 mps 682 mmHg 19%
    14:00 +29°C° 0 mm 8 mps 682 mmHg 20%
    15:00 +29°C° 0 mm 9 mps 681 mmHg 20%
    16:00 +28°C° 0 mm 9 mps 681 mmHg 21%
    17:00 +27°C° 0 mm 8 mps 681 mmHg 23%
    18:00 +26°C° 0 mm 8 mps 681 mmHg 26%
    19:00 +23°C° 0 mm 7 mps 681 mmHg 28%
    20:00 +23°C° 0 mm 7 mps 681 mmHg 30%
    21:00 +22°C° 0 mm 7 mps 681 mmHg 32%
    22:00 +21°C° 0 mm 6 mps 681 mmHg 33%
    23:00 +21°C° 0 mm 6 mps 681 mmHg 35%

    Day after tomorrow, 22 September, Saturday

    Time Temperature Precipitation Wind Pressure Humidity
    00:00 +20°C° 0 mm 5 mps 681 mmHg 36%
    01:00 +19°C° 0 mm 5 mps 681 mmHg 37%
    02:00 +19°C° 0 mm 5 mps 681 mmHg 38%
    03:00 +19°C° 0 mm 4 mps 680 mmHg 39%
    04:00 +18°C° 0 mm 4 mps 680 mmHg 40%
    05:00 +19°C° 0 mm 4 mps 681 mmHg 38%
    06:00 +19°C° 0 mm 4 mps 681 mmHg 37%
    07:00 +19°C° 0 mm 5 mps 681 mmHg 36%
    08:00 +21°C° 0 mm 5 mps 682 mmHg 31%
    09:00 +23°C° 0 mm 6 mps 682 mmHg 27%
    10:00 +26°C° 0 mm 6 mps 682 mmHg 23%
    11:00 +27°C° 0 mm 7 mps 682 mmHg 21%
    12:00 +28°C° 0 mm 7 mps 682 mmHg 20%
    13:00 +29°C° 0 mm 7 mps 681 mmHg 18%
    14:00 +29°C° 0 mm 8 mps 681 mmHg 18%
    15:00 +28°C° 0 mm 8 mps 681 mmHg 19%
    16:00 +28°C° 0 mm 8 mps 681 mmHg 19%
    17:00 +27°C° 0 mm 8 mps 681 mmHg 21%
    18:00 +24°C° 0 mm 7 mps 681 mmHg 24%
    19:00 +23°C° 0 mm 7 mps 681 mmHg 26%
    20:00 +22°C° 0 mm 6 mps 681 mmHg 27%
    21:00 +22°C° 0 mm 6 mps 681 mmHg 29%
    22:00 +21°C° 0 mm 5 mps 682 mmHg 30%
    23:00 +21°C° 0 mm 5 mps 681 mmHg 32%

    23 September, Sunday

    Time Temperature Precipitation Wind Pressure Humidity
    00:00 +20°C° 0 mm 5 mps 681 mmHg 33%
    01:00 +20°C° 0 mm 5 mps 681 mmHg 34%
    02:00 +19°C° 0 mm 4 mps 681 mmHg 36%
    03:00 +19°C° 0 mm 4 mps 681 mmHg 37%
    04:00 +18°C° 0 mm 4 mps 681 mmHg 38%
    05:00 +19°C° 0 mm 4 mps 681 mmHg 36%
    06:00 +19°C° 0 mm 4 mps 681 mmHg 35%
    07:00 +20°C° 0 mm 4 mps 682 mmHg 34%
    08:00 +22°C° 0 mm 5 mps 682 mmHg 29%
    09:00 +24°C° 0 mm 6 mps 682 mmHg 24%
    10:00 +27°C° 0 mm 6 mps 683 mmHg 20%
    11:00 +28°C° 0 mm 6 mps 682 mmHg 18%
    12:00 +28°C° 0 mm 7 mps 682 mmHg 16%
    13:00 +29°C° 0 mm 7 mps 682 mmHg 15%
    14:00 +29°C° 0 mm 7 mps 681 mmHg 15%
    15:00 +29°C° 0 mm 7 mps 681 mmHg 15%
    16:00 +29°C° 0 mm 8 mps 681 mmHg 15%
    17:00 +27°C° 0 mm 7 mps 681 mmHg 16%
    18:00 +26°C° 0 mm 6 mps 681 mmHg 18%
    19:00 +23°C° 0 mm 6 mps 681 mmHg 19%
    20:00 +23°C° 0 mm 5 mps 681 mmHg 20%
    21:00 +22°C° 0 mm 5 mps 681 mmHg 21%
    22:00 +21°C° 0 mm 4 mps 681 mmHg 22%
    23:00 +21°C° 0 mm 4 mps 680 mmHg 23%

    24 September, Monday

    Time Temperature Precipitation Wind Pressure Humidity
    00:00 +20°C° 0 mm 4 mps 680 mmHg 24%
    01:00 +19°C° 0 mm 3 mps 680 mmHg 25%
    02:00 +19°C° 0 mm 3 mps 679 mmHg 25%
    03:00 +19°C° 0 mm 3 mps 679 mmHg 26%
    04:00 +18°C° 0 mm 3 mps 679 mmHg 27%
    05:00 +19°C° 0 mm 3 mps 679 mmHg 26%
    06:00 +19°C° 0 mm 3 mps 680 mmHg 25%
    07:00 +20°C° 0 mm 3 mps 680 mmHg 24%
    08:00 +22°C° 0 mm 3 mps 680 mmHg 21%
    09:00 +25°C° 0 mm 3 mps 681 mmHg 17%
    10:00 +27°C° 0 mm 3 mps 681 mmHg 14%
    11:00 +28°C° 0 mm 4 mps 680 mmHg 13%
    12:00 +29°C° 0 mm 4 mps 680 mmHg 11%
    13:00 +30°C° 0 mm 4 mps 680 mmHg 10%
    14:00 +30°C° 0 mm 5 mps 679 mmHg 11%
    15:00 +30°C° 0 mm 5 mps 679 mmHg 11%
    16:00 +29°C° 0 mm 5 mps 679 mmHg 11%
    17:00 +28°C° 0 mm 5 mps 679 mmHg 12%
    18:00 +26°C° 0 mm 5 mps 679 mmHg 13%
    19:00 +25°C° 0 mm 4 mps 679 mmHg 15%
    20:00 +23°C° 0 mm 4 mps 679 mmHg 16%
    21:00 +22°C° 0 mm 4 mps 679 mmHg 17%
    22:00 +22°C° 0 mm 3 mps 679 mmHg 18%
    23:00 +21°C° 0 mm 3 mps 679 mmHg 19%

    25 September, Tuesday

    Time Temperature Precipitation Wind Pressure Humidity
    00:00 +21°C° 0 mm 3 mps 679 mmHg 19%
    01:00 +20°C° 0 mm 3 mps 679 mmHg 20%
    02:00 +20°C° 0 mm 3 mps 679 mmHg 21%
    03:00 +20°C° 0 mm 3 mps 679 mmHg 22%
    04:00 +19°C° 0 mm 3 mps 679 mmHg 22%
    05:00 +20°C° 0 mm 3 mps 679 mmHg 22%
    06:00 +20°C° 0 mm 3 mps 680 mmHg 22%
    07:00 +21°C° 0 mm 3 mps 680 mmHg 21%
    08:00 +23°C° 0 mm 4 mps 680 mmHg 18%
    09:00 +26°C° 0 mm 4 mps 681 mmHg 16%
    10:00 +28°C° 0 mm 5 mps 681 mmHg 13%
    11:00 +29°C° 0 mm 5 mps 681 mmHg 12%
    12:00 +29°C° 0 mm 5 mps 681 mmHg 12%
    13:00 +30°C° 0 mm 5 mps 680 mmHg 11%
    14:00 +30°C° 0 mm 6 mps 680 mmHg 12%
    15:00 +30°C° 0 mm 6 mps 680 mmHg 12%
    16:00 +30°C° 0 mm 6 mps 680 mmHg 12%
    17:00 +28°C° 0 mm 6 mps 680 mmHg 14%
    18:00 +27°C° 0 mm 5 mps 680 mmHg 15%
    19:00 +25°C° 0 mm 5 mps 680 mmHg 16%
    20:00 +23°C° 0 mm 5 mps 680 mmHg 17%
    21:00 +23°C° 0 mm 5 mps 680 mmHg 17%
    22:00 +22°C° 0 mm 5 mps 680 mmHg 18%
    23:00 +21°C° 0 mm 4 mps 680 mmHg 19%
    Show more